Temp
87 85 85 82 82 83 85 86 86 83 83 84 82 81 77 77 73 72 70 72 75 79 86 80 80 82 81 80 83 81 82 82 80 80 79 79 79 76 74 74 74 74 74 74 74 74 74 74 74 75 75 75 75 75 74 74 74 74 74 74 74 73 73 72 72 72 72 72 72 72 72 73 73 73
84 85 85 84 82 84 85 85 86 83 82 81 80 82 81 79 74 74 72 73 78 77 82 86 79 79 80 82 82 83 81 80 81 80 79 81 80 77 73 73 73 74 73 72 72 72 73 73 73 74 74 74 74 74 74 74 74 74 73 73 73 73 73 72 72 72 72 71 71 71 72 72 72 72
83 83 83 82 81 83 83 84 85 84 82 81 82 81 81 80 78 76 75 72 76 81 77 81 85 82 80 85 83 82 83 80 82 81 80 80 80 76 75 73 73 72 72 72 71 71 72 71 72 72 72 73 73 73 73 73 73 73 73 73 73 72 73 72 71 71 71 71 71 71 71 71 71 71
83 82 82 81 81 81 81 82 83 82 82 82 80 81 80 79 79 78 76 74 74 79 81 81 80 85 80 81 80 80 82 81 80 80 80 81 76 77 77 73 73 72 71 71 71 70 70 70 70 71 72 72 72 73 73 73 73 73 72 72 72 71 71 70 70 70 70 71 71 70 70 70 70 71
84 82 81 82 82 82 81 81 82 82 81 81 81 81 79 78 79 78 76 73 74 78 82 79 82 84 82 80 81 80 80 79 79 80 79 79 78 78 78 76 72 71 71 70 70 70 70 70 70 71 71 71 72 72 73 72 71 70 71 71 69 69 70 69 70 70 70 69 69 69 69 70 70 70
84 82 81 82 82 82 82 82 82 83 83 82 81 79 79 78 78 79 77 74 74 73 79 79 81 80 83 78 80 79 79 79 78 79 78 80 79 79 79 78 76 71 71 70 70 70 69 69 69 70 70 71 71 72 71 71 69 69 70 69 68 68 68 68 68 68 68 68 68 68 69 69 69 69
83 82 81 82 83 84 82 82 82 84 82 83 81 80 80 78 79 79 78 76 74 74 75 79 79 79 81 79 78 79 81 80 79 78 78 80 81 81 81 80 81 73 71 70 70 70 69 69 69 69 69 70 70 70 69 68 68 68 67 67 67 67 67 66 66 66 67 66 67 67 67 67 67 68
83 82 81 82 83 83 81 81 81 81 82 80 79 80 79 78 79 79 78 78 76 76 74 77 78 79 77 79 81 81 80 80 79 79 79 80 80 81 81 80 81 77 71 70 70 69 69 69 68 68 68 68 68 67 67 67 66 65 66 66 65 65 64 63 63 64 64 64 64 64 65 66 66 66
83 83 82 82 82 82 81 80 80 81 80 81 80 80 79 78 79 80 79 77 77 76 75 76 79 80 79 79 79 79 79 78 78 79 78 79 78 78 81 83 84 76 71 71 70 69 69 69 68 68 68 67 66 66 66 66 65 65 64 63 63 64 64 63 63 63 63 62 62 62 64 65 65 65
84 83 83 83 82 82 81 81 80 80 80 81 80 80 79 79 79 78 78 78 76 76 75 75 76 78 78 78 78 78 78 78 76 76 77 78 78 77 78 81 84 82 76 74 74 70 69 69 68 68 68 67 66 65 65 66 65 63 62 60 61 64 62 61 61 61 61 61 60 60 61 63 63 64
85 85 84 83 83 82 82 82 81 80 80 81 80 80 80 80 79 78 77 77 77 76 75 76 76 76 78 77 75 77 79 78 77 76 75 74 76 77 76 76 79 82 79 76 74 75 74 73 72 67 65 66 66 65 64 64 64 63 62 60 60 59 60 61 60 59 59 60 60 60 60 59 61 63
87 86 86 86 85 84 83 82 82 81 80 80 80 80 80 79 78 78 77 77 76 75 75 75 74 74 74 76 78 79 77 75 75 77 75 73 73 74 75 76 76 77 78 77 80 75 73 73 71 68 67 66 66 64 64 65 66 65 63 61 63 63 60 59 59 59 59 59 59 59 60 60 60 60
86 86 87 87 87 84 82 79 80 80 79 81 79 79 79 79 78 77 77 76 75 74 75 74 75 74 74 74 75 74 74 73 73 75 76 74 75 75 74 75 77 77 76 77 78 78 78 76 74 73 71 70 68 67 67 69 69 66 63 62 64 64 62 60 60 59 59 58 58 58 59 59 59 59
86 87 88 87 82 79 76 76 76 76 76 77 82 80 79 79 78 77 76 75 75 74 73 74 74 73 74 75 75 75 76 76 76 75 74 72 73 74 74 75 76 77 77 75 74 76 78 79 76 73 72 74 73 72 70 70 72 69 65 64 64 63 63 61 60 59 58 58 58 58 57 58 58 58
85 86 86 87 83 79 76 77 73 75 75 74 76 78 78 79 79 78 76 76 76 75 74 75 75 74 74 76 77 76 78 78 76 75 74 73 72 71 69 68 73 78 76 74 73 72 76 76 73 74 75 76 75 74 73 69 67 65 64 65 64 64 63 63 61 60 58 58 58 58 57 57 58 58
85 85 86 87 87 85 83 82 79 75 73 73 73 75 76 76 77 78 78 77 76 76 75 74 75 75 74 75 77 78 79 75 76 75 75 73 72 70 69 69 70 74 77 73 71 70 74 75 74 72 74 76 77 76 67 65 64 63 64 64 64 63 63 63 63 62 60 60 61 61 60 60 60 59
84 84 85 85 86 87 76 79 82 80 78 72 71 72 75 76 74 73 74 77 79 79 76 76 75 76 76 76 76 79 78 78 75 74 73 73 72 72 70 70 71 72 75 73 70 69 72 74 72 72 74 76 75 70 66 65 64 64 64 64 64 63 62 62 61 62 62 61 60 58 58 59 59 59
85 85 84 84 84 85 83 81 82 81 80 79 75 74 77 79 78 73 72 73 76 79 79 77 76 77 78 76 77 79 79 77 75 74 73 73 72 72 71 74 73 74 76 71 70 68 70 73 72 70 73 76 73 69 66 64 64 64 64 63 63 62 61 62 61 61 61 61 60 59 57 56 56 56
86 85 85 85 84 84 84 82 82 82 81 80 78 77 78 79 81 79 79 80 80 81 83 81 80 79 80 79 79 80 79 79 78 77 75 75 74 75 75 74 75 74 75 73 71 66 69 73 70 70 72 74 72 71 64 63 64 63 63 64 63 62 62 63 62 61 60 60 59 59 57 56 56 55
85 86 85 84 84 84 84 77 70 76 81 80 79 77 78 79 81 82 78 76 78 82 83 82 83 84 84 78 82 82 82 78 78 78 79 77 75 72 70 69 74 72 75 75 71 69 68 72 72 69 74 74 72 70 67 64 64 64 63 63 62 61 61 62 62 61 61 61 60 59 58 56 55 55
86 86 86 85 85 85 84 76 67 70 74 81 79 78 78 79 80 80 82 73 71 72 72 72 73 73 72 70 69 70 73 77 77 76 73 72 75 70 67 68 70 71 76 76 75 71 69 71 71 70 70 70 71 71 71 70 64 63 62 63 62 61 60 60 60 60 61 61 60 60 59 57 56 57
85 85 79 83 85 85 84 72 64 67 73 80 79 78 78 77 78 79 83 83 77 69 69 70 70 69 67 68 67 68 69 70 74 75 71 75 75 70 69 67 70 74 75 74 77 70 69 71 71 68 68 69 70 71 70 70 66 63 61 61 61 61 60 59 59 60 60 60 60 59 59 57 57 59
85 85 79 75 78 81 80 68 63 64 71 81 80 79 78 77 77 79 81 81 80 77 75 73 71 70 70 72 73 73 69 73 77 78 76 77 74 71 71 72 70 69 71 74 76 68 67 69 69 68 66 64 67 72 70 68 66 65 66 65 64 61 59 59 58 57 58 59 59 59 58 57 57 60
84 84 85 78 66 68 69 64 60 61 64 79 81 80 78 77 76 81 80 80 80 77 76 75 75 74 74 75 76 74 74 77 79 77 77 78 76 73 72 73 72 69 69 71 77 70 71 71 67 71 68 62 62 66 69 69 69 68 69 68 68 65 63 62 60 58 57 57 57 58 57 57 57 60
83 83 84 86 70 63 63 61 58 59 60 69 81 80 79 79 79 77 80 78 77 77 75 75 74 74 74 75 76 74 74 76 78 78 78 78 78 75 74 74 73 72 71 71 73 71 68 69 68 68 65 65 66 65 66 66 66 69 69 67 67 68 67 65 64 66 61 58 57 56 56 57 57 58
83 83 84 83 75 62 61 59 56 57 59 63 77 79 70 70 68 77 80 80 77 76 75 75 74 74 74 74 75 75 75 76 77 78 78 79 81 80 80 74 70 70 65 69 70 70 67 66 68 67 66 65 66 65 64 65 68 67 68 68 68 67 69 68 67 66 67 67 67 60 60 58 57 57
83 84 84 83 72 61 58 57 56 55 57 59 71 67 64 65 65 72 80 77 75 74 74 73 72 72 73 73 73 74 74 75 76 76 77 77 77 77 79 78 75 71 69 70 72 70 68 65 69 65 63 64 62 64 62 60 63 66 66 67 67 68 69 69 67 67 69 68 68 64 60 56 57 57
85 84 84 81 69 58 54 55 56 56 57 65 62 62 63 63 64 76 78 74 74 73 73 72 71 71 73 73 73 74 74 75 73 74 76 75 78 76 75 74 75 72 70 71 70 70 68 66 67 66 65 63 60 58 58 63 64 64 63 67 68 69 68 68 66 68 67 66 68 68 69 68 67 65
85 76 69 66 63 58 54 55 56 56 56 58 60 61 61 64 73 76 78 76 74 72 72 72 72 72 73 74 74 75 75 74 74 73 75 76 76 76 73 71 71 71 73 74 71 70 68 67 66 66 65 63 61 62 61 60 62 62 64 63 62 66 67 67 67 65 65 66 68 66 66 66 65 65
71 68 65 62 61 56 56 61 63 65 65 58 59 61 63 70 75 77 77 75 73 72 72 72 72 73 74 74 75 74 74 73 72 72 72 72 73 73 69 68 67 70 73 73 73 71 69 68 67 66 64 64 63 62 61 61 59 61 63 63 62 65 66 66 65 65 66 65 65 66 66 66 66 65
75 73 70 74 69 67 60 61 61 63 63 61 61 64 67 71 75 77 77 77 74 73 73 73 73 74 75 76 74 73 72 71 71 72 71 70 71 69 68 66 65 66 69 71 73 72 70 69 68 67 63 64 64 62 62 63 60 60 61 62 63 59 63 65 66 66 65 66 65 65 66 66 65 66
74 77 69 67 72 70 66 64 65 65 67 66 63 65 68 70 73 74 73 74 75 74 75 74 74 73 73 73 73 73 72 72 71 71 71 70 69 68 67 64 63 65 66 69 70 71 72 69 67 66 65 63 61 62 63 62 60 60 61 62 63 63 65 64 65 65 66 64 65 64 63 64 63 65
71 71 72 73 73 69 67 64 64 65 66 67 66 67 68 70 73 74 74 74 73 74 73 72 72 72 73 73 73 72 71 69 69 70 69 69 67 67 67 65 64 64 64 65 67 68 69 69 69 67 66 65 64 63 61 59 61 61 61 61 62 62 64 66 65 64 65 63 63 62 61 63 65 65
67 69 71 71 71 66 66 66 66 66 66 67 67 67 65 69 72 73 72 73 74 73 73 73 72 72 72 72 72 71 70 68 69 68 67 67 67 66 65 64 64 65 65 65 66 67 67 66 66 66 66 66 66 64 63 61 60 61 62 62 62 62 63 66 65 66 63 64 63 60 61 60 63 64
66 67 68 69 70 67 67 67 68 68 67 67 67 67 67 68 68 69 72 73 72 72 72 72 73 72 72 72 71 70 70 68 68 67 67 68 67 66 66 65 64 64 65 65 65 66 66 64 63 63 62 62 62 63 67 66 62 62 62 62 62 62 63 66 63 63 65 63 64 60 61 61 61 63
63 67 68 69 70 70 68 68 69 70 71 69 69 68 67 67 69 70 71 72 73 72 72 72 71 71 72 72 71 71 69 67 68 67 66 67 66 66 67 66 65 65 66 66 66 66 66 65 64 61 59 59 58 58 60 66 66 65 62 62 63 63 64 64 63 64 63 61 63 60 59 59 60 63
62 65 66 67 69 70 70 71 71 71 71 71 71 70 69 69 69 71 72 70 73 72 72 72 72 72 72 71 69 67 67 67 67 66 65 66 66 66 65 65 65 64 65 65 66 66 65 64 64 62 60 59 58 57 60 65 63 64 65 63 63 65 62 62 62 60 61 62 61 62 60 61 60 62
62 63 64 66 67 70 71 72 71 70 70 71 71 70 71 72 72 72 73 72 70 71 71 72 71 70 71 70 69 68 68 68 67 66 66 66 65 65 65 64 64 64 65 65 66 66 66 65 64 63 62 60 59 59 59 62 61 60 61 64 62 63 64 62 60 59 60 62 61 61 62 61 59 61
61 62 63 64 65 67 68 70 71 71 72 71 70 70 70 71 72 72 70 70 70 70 69 68 68 68 68 69 68 68 65 65 66 66 65 65 65 64 64 64 64 65 65 65 65 65 65 64 64 64 62 61 60 60 61 61 61 65 62 58 63 61 61 60 59 60 60 60 61 63 64 63 64 63
67 66 66 65 65 66 67 69 70 71 72 71 71 71 70 69 69 69 69 68 68 69 69 68 67 66 68 67 67 68 66 65 65 66 63 64 64 65 64 65 65 65 64 65 64 64 64 64 63 64 64 63 64 65 64 62 64 64 65 60 55 61 64 61 61 61 61 61 63 61 58 61 59 62
67 66 67 67 67 67 66 66 67 67 69 70 71 67 69 69 68 68 68 68 67 66 66 65 64 64 65 64 64 62 60 61 63 63 65 65 63 64 64 63 64 65 64 64 64 64 65 65 67 65 68 66 65 64 63 60 59 60 60 63 58 56 58 61 63 62 61 62 61 59 57 57 57 58
67 66 67 67 67 66 66 65 65 65 65 66 67 68 68 68 68 65 66 65 66 66 65 65 63 63 62 61 61 60 61 61 61 62 64 65 64 63 63 62 63 63 64 64 64 64 65 66 68 68 67 64 62 60 58 57 57 59 61 63 67 59 55 56 60 62 64 63 60 59 57 57 59 57
66 67 66 66 66 66 66 65 65 65 65 66 66 66 66 67 67 66 66 66 66 65 65 63 62 61 61 61 61 61 60 60 62 63 65 63 63 63 63 63 64 64 66 65 65 65 64 64 65 65 64 64 62 61 59 59 59 59 61 63 63 65 64 57 56 57 58 60 61 62 61 58 57 52
67 66 66 65 65 66 66 66 66 66 66 66 65 66 66 65 65 65 66 65 64 63 62 61 61 61 60 60 61 60 60 62 63 64 64 63 64 64 63 63 63 65 65 65 64 64 65 64 64 64 63 61 61 60 59 60 60 61 62 62 64 65 63 64 65 59 56 57 57 58 58 59 60 60
66 66 65 65 65 65 64 64 63 63 64 64 65 65 65 64 63 64 65 63 62 62 61 61 60 60 60 60 60 59 60 60 62 64 63 63 62 62 62 62 62 65 64 64 64 63 63 63 64 63 62 62 62 61 62 62 61 61 61 63 61 62 63 63 63 61 61 61 61 59 58 58 58 57
MSLP
1017.08 1017.32 1017.44 1017.64 1017.60 1017.56 1017.16 1017.08 1017.24 1017.40 1017.60 1017.76 1017.96 1018.28 1019.20 1019.72 1020.88 1021.40 1021.76 1021.20 1020.84 1019.88 1019.08 1019.80 1018.96 1018.40 1018.48 1018.64 1018.52 1018.76 1018.88 1018.96 1019.16 1019.48 1019.60 1019.68 1019.76 1019.88 1020.08 1020.20 1020.32 1020.48 1020.64 1020.76 1020.80 1020.84 1020.88 1020.88 1020.92 1020.96 1021.00 1021.04 1021.08 1021.12 1021.20 1021.24 1021.28 1021.28 1021.32 1021.36 1021.36 1021.36 1021.36 1021.32 1021.32 1021.28 1021.28 1021.28 1021.24 1021.20 1021.16 1021.08 1021.04 1021.00
1016.88 1017.00 1017.20 1017.32 1017.52 1017.28 1017.32 1017.20 1017.12 1017.28 1017.48 1017.80 1018.00 1018.20 1018.36 1018.72 1020.08 1020.40 1021.16 1021.04 1019.76 1019.80 1018.88 1018.60 1019.24 1018.64 1018.64 1018.52 1018.68 1018.68 1018.84 1018.80 1019.04 1019.28 1019.44 1019.48 1019.44 1019.48 1019.72 1019.96 1020.16 1020.32 1020.48 1020.56 1020.64 1020.68 1020.68 1020.72 1020.72 1020.80 1020.88 1020.92 1020.96 1021.00 1021.08 1021.12 1021.16 1021.24 1021.28 1021.28 1021.28 1021.28 1021.24 1021.24 1021.24 1021.28 1021.24 1021.24 1021.20 1021.16 1021.12 1021.04 1021.00 1020.92
1016.76 1017.00 1017.16 1017.12 1017.32 1017.16 1017.28 1017.12 1017.12 1017.24 1017.36 1017.68 1017.88 1018.12 1018.24 1018.56 1019.00 1019.68 1020.08 1021.12 1019.60 1018.72 1019.52 1018.64 1018.08 1018.64 1018.60 1018.48 1018.72 1018.68 1018.64 1018.72 1018.80 1019.04 1019.20 1019.20 1019.16 1019.28 1019.48 1019.68 1019.92 1020.12 1020.28 1020.40 1020.48 1020.52 1020.52 1020.56 1020.60 1020.68 1020.76 1020.80 1020.84 1020.92 1021.00 1021.08 1021.12 1021.16 1021.16 1021.16 1021.16 1021.16 1021.16 1021.16 1021.20 1021.20 1021.20 1021.16 1021.16 1021.12 1021.08 1021.04 1020.96 1020.88
1016.52 1016.88 1017.12 1017.04 1017.12 1017.04 1017.16 1017.20 1017.16 1017.28 1017.32 1017.48 1017.84 1018.04 1018.24 1018.44 1018.56 1018.96 1019.64 1020.32 1020.36 1018.60 1018.64 1018.44 1018.36 1018.16 1018.52 1018.36 1018.76 1018.76 1018.64 1018.56 1018.68 1018.84 1018.96 1019.00 1019.16 1019.28 1019.44 1019.60 1019.72 1019.92 1020.08 1020.20 1020.24 1020.28 1020.32 1020.36 1020.44 1020.52 1020.56 1020.64 1020.76 1020.84 1020.88 1020.96 1021.04 1021.04 1021.08 1021.08 1021.08 1021.08 1021.08 1021.08 1021.12 1021.16 1021.16 1021.12 1021.12 1021.08 1021.04 1021.00 1020.96 1020.88
1016.24 1016.60 1016.92 1016.84 1016.76 1016.72 1017.12 1017.16 1017.12 1017.12 1017.28 1017.44 1017.68 1017.84 1018.08 1018.40 1018.40 1018.80 1019.44 1020.12 1020.08 1019.04 1017.92 1018.16 1018.40 1017.96 1018.04 1018.68 1018.40 1018.76 1018.80 1018.88 1018.84 1018.76 1018.84 1019.00 1019.20 1019.28 1019.36 1019.48 1019.64 1019.72 1019.80 1019.88 1019.96 1020.04 1020.08 1020.12 1020.20 1020.28 1020.36 1020.48 1020.56 1020.64 1020.72 1020.80 1020.92 1020.96 1020.96 1020.96 1021.00 1021.00 1021.04 1021.08 1021.12 1021.12 1021.16 1021.12 1021.12 1021.04 1021.00 1020.96 1020.88 1020.84
1015.96 1016.24 1016.64 1016.72 1016.64 1016.52 1016.84 1016.92 1017.04 1017.00 1017.12 1017.32 1017.68 1017.84 1017.96 1018.24 1018.36 1018.20 1019.04 1019.52 1019.80 1020.00 1018.68 1018.48 1017.88 1018.04 1017.84 1018.84 1018.20 1018.68 1018.88 1019.00 1018.92 1019.04 1019.00 1018.92 1019.00 1019.20 1019.20 1019.32 1019.36 1019.40 1019.52 1019.60 1019.72 1019.84 1019.92 1019.96 1020.04 1020.08 1020.16 1020.24 1020.36 1020.44 1020.56 1020.68 1020.76 1020.80 1020.80 1020.84 1020.88 1020.96 1021.04 1021.08 1021.08 1021.08 1021.08 1021.08 1021.00 1020.96 1020.92 1020.88 1020.84 1020.80
1015.68 1016.04 1016.28 1016.44 1016.36 1016.32 1016.68 1016.76 1016.76 1016.72 1016.84 1016.92 1017.32 1017.56 1017.56 1017.92 1018.00 1018.00 1018.20 1018.96 1019.64 1019.64 1019.32 1018.40 1018.52 1018.32 1018.08 1018.48 1018.72 1018.40 1018.36 1018.48 1018.68 1019.00 1019.00 1019.00 1018.92 1018.84 1018.88 1018.96 1018.96 1019.12 1019.32 1019.44 1019.56 1019.68 1019.76 1019.80 1019.84 1019.92 1019.96 1020.08 1020.20 1020.32 1020.44 1020.52 1020.60 1020.60 1020.64 1020.72 1020.80 1020.88 1020.96 1020.96 1020.96 1020.96 1021.00 1021.00 1020.96 1020.92 1020.88 1020.84 1020.76 1020.72
1015.40 1015.64 1015.96 1016.00 1016.00 1016.08 1016.48 1016.60 1016.64 1016.56 1016.56 1016.72 1016.96 1017.20 1017.28 1017.48 1017.68 1017.68 1017.84 1018.08 1018.76 1019.00 1019.44 1018.64 1018.48 1018.20 1018.44 1018.28 1018.00 1018.12 1018.12 1018.36 1018.56 1018.68 1018.72 1018.56 1018.72 1018.68 1018.64 1018.72 1018.76 1018.80 1019.04 1019.24 1019.36 1019.44 1019.48 1019.52 1019.68 1019.72 1019.80 1019.92 1020.08 1020.20 1020.28 1020.32 1020.36 1020.40 1020.48 1020.60 1020.68 1020.80 1020.84 1020.84 1020.80 1020.84 1020.88 1020.88 1020.88 1020.84 1020.80 1020.72 1020.68 1020.64
1014.88 1015.16 1015.36 1015.44 1015.52 1015.76 1016.20 1016.40 1016.48 1016.40 1016.56 1016.48 1016.68 1016.96 1017.00 1017.20 1017.24 1017.32 1017.48 1017.80 1018.00 1018.56 1018.96 1018.72 1018.04 1017.80 1017.96 1017.84 1017.88 1017.88 1018.48 1018.52 1018.44 1018.44 1018.64 1018.64 1018.64 1018.64 1018.48 1018.44 1018.40 1018.48 1018.68 1018.88 1019.08 1019.16 1019.20 1019.32 1019.40 1019.48 1019.56 1019.76 1019.92 1020.00 1020.08 1020.16 1020.20 1020.24 1020.28 1020.40 1020.52 1020.64 1020.68 1020.64 1020.64 1020.68 1020.72 1020.76 1020.76 1020.72 1020.68 1020.60 1020.56 1020.52
1014.28 1014.60 1014.80 1014.92 1015.04 1015.32 1015.72 1015.96 1016.04 1016.16 1016.32 1016.32 1016.44 1016.60 1016.72 1016.84 1016.96 1017.24 1017.32 1017.44 1017.76 1018.04 1018.36 1018.44 1018.48 1017.88 1018.12 1018.08 1018.00 1017.88 1018.04 1018.52 1018.88 1018.76 1018.56 1018.44 1018.48 1018.68 1018.80 1018.60 1018.36 1018.24 1018.56 1018.96 1019.04 1019.12 1019.16 1019.16 1019.12 1019.20 1019.36 1019.52 1019.72 1019.84 1019.92 1020.00 1020.04 1020.04 1020.04 1020.16 1020.40 1020.44 1020.48 1020.52 1020.56 1020.60 1020.60 1020.60 1020.60 1020.60 1020.56 1020.48 1020.44 1020.40
1013.72 1013.96 1014.20 1014.44 1014.56 1014.84 1015.00 1015.28 1015.56 1015.76 1015.96 1016.04 1016.12 1016.16 1016.32 1016.44 1016.76 1017.04 1017.20 1017.28 1017.56 1017.80 1018.16 1018.16 1018.08 1018.16 1017.72 1017.76 1018.36 1017.76 1017.60 1017.96 1018.28 1018.88 1019.12 1019.16 1018.56 1018.52 1018.76 1019.00 1018.56 1018.32 1018.52 1018.52 1018.56 1018.64 1018.72 1018.72 1018.88 1019.00 1019.16 1019.28 1019.48 1019.64 1019.80 1019.88 1019.84 1019.80 1019.84 1020.04 1020.20 1020.32 1020.40 1020.44 1020.48 1020.48 1020.48 1020.48 1020.44 1020.40 1020.36 1020.36 1020.32 1020.28
1013.24 1013.44 1013.64 1013.80 1014.00 1014.20 1014.36 1014.60 1014.80 1015.04 1015.48 1015.52 1015.80 1015.72 1015.88 1016.08 1016.40 1016.72 1016.88 1017.12 1017.32 1017.60 1017.80 1018.00 1018.16 1017.96 1018.04 1017.76 1017.52 1017.40 1017.68 1018.32 1018.40 1018.24 1018.72 1019.32 1019.16 1018.96 1018.60 1018.64 1018.96 1018.64 1018.56 1018.84 1018.72 1018.52 1018.56 1018.72 1018.72 1018.76 1018.92 1019.08 1019.28 1019.48 1019.60 1019.60 1019.52 1019.56 1019.68 1019.88 1020.00 1020.12 1020.20 1020.24 1020.28 1020.32 1020.32 1020.32 1020.28 1020.24 1020.20 1020.16 1020.16 1020.16
1012.80 1012.96 1013.08 1013.20 1013.32 1013.44 1013.68 1013.84 1014.00 1014.12 1014.32 1014.84 1015.36 1015.32 1015.44 1015.76 1016.04 1016.32 1016.52 1016.80 1017.08 1017.32 1017.48 1017.72 1017.56 1017.80 1017.96 1017.80 1017.88 1018.00 1018.16 1018.44 1018.52 1018.12 1018.16 1018.68 1018.56 1018.56 1018.84 1018.64 1018.32 1018.40 1018.68 1018.68 1018.60 1018.56 1018.52 1018.76 1018.72 1018.76 1018.92 1018.92 1019.00 1019.16 1019.20 1019.16 1019.16 1019.36 1019.56 1019.72 1019.80 1019.88 1019.96 1020.04 1020.12 1020.12 1020.16 1020.16 1020.16 1020.12 1020.04 1019.96 1019.96 1019.96
1012.32 1012.36 1012.48 1012.52 1012.68 1012.88 1013.12 1013.32 1013.52 1013.68 1013.76 1013.76 1013.96 1014.40 1014.76 1015.16 1015.56 1015.92 1016.24 1016.52 1016.68 1016.96 1017.32 1017.36 1017.44 1017.76 1017.76 1017.56 1017.36 1017.52 1017.36 1017.28 1017.40 1017.84 1018.12 1018.72 1018.56 1018.48 1018.68 1018.56 1018.24 1017.96 1018.28 1018.72 1018.92 1018.64 1018.24 1018.44 1018.56 1018.60 1018.76 1018.52 1018.52 1018.64 1018.80 1019.00 1019.04 1019.08 1019.28 1019.48 1019.60 1019.72 1019.80 1019.88 1019.92 1019.96 1020.00 1020.00 1020.04 1020.00 1019.92 1019.84 1019.76 1019.76
1011.96 1011.88 1011.88 1011.92 1012.08 1012.36 1012.56 1012.68 1012.84 1013.08 1013.20 1013.32 1013.44 1013.60 1013.76 1014.00 1014.56 1015.32 1015.80 1015.96 1016.04 1016.48 1016.68 1016.64 1016.84 1017.00 1017.16 1016.92 1016.60 1016.76 1016.72 1016.76 1017.12 1017.44 1017.68 1018.00 1018.32 1018.80 1019.28 1019.68 1018.56 1017.60 1017.96 1018.44 1018.80 1018.84 1018.20 1018.28 1018.76 1018.56 1018.40 1018.28 1018.20 1018.20 1018.44 1018.52 1018.80 1018.92 1019.08 1019.28 1019.44 1019.56 1019.64 1019.72 1019.80 1019.80 1019.80 1019.84 1019.88 1019.88 1019.84 1019.72 1019.64 1019.56
1011.28 1011.44 1011.44 1011.36 1011.36 1011.52 1011.68 1011.92 1012.32 1012.48 1012.64 1012.88 1013.04 1013.20 1013.40 1013.64 1013.76 1013.84 1014.40 1015.12 1015.60 1015.76 1016.12 1016.32 1016.20 1016.28 1016.44 1016.40 1016.24 1016.28 1016.32 1016.56 1016.68 1016.84 1017.12 1017.56 1018.00 1018.52 1018.84 1018.84 1019.08 1017.92 1017.40 1018.32 1018.84 1018.96 1018.20 1018.08 1018.40 1018.52 1018.24 1017.96 1017.76 1017.88 1018.24 1018.44 1018.64 1018.80 1018.96 1019.12 1019.28 1019.40 1019.44 1019.52 1019.52 1019.48 1019.52 1019.60 1019.64 1019.64 1019.60 1019.56 1019.48 1019.40
1010.64 1010.80 1010.96 1011.00 1010.88 1010.80 1011.08 1011.40 1011.56 1011.92 1012.28 1012.52 1012.72 1012.88 1013.12 1013.24 1013.32 1013.52 1013.60 1013.72 1014.08 1014.52 1015.16 1015.48 1015.64 1015.52 1015.60 1016.00 1015.80 1015.44 1015.56 1015.56 1016.40 1016.52 1016.92 1017.16 1017.48 1017.76 1018.16 1018.16 1018.08 1017.88 1017.36 1018.08 1018.72 1019.00 1018.28 1018.04 1018.32 1018.48 1017.96 1017.64 1017.64 1018.04 1018.24 1018.36 1018.52 1018.64 1018.84 1018.96 1019.08 1019.16 1019.20 1019.20 1019.24 1019.24 1019.28 1019.32 1019.32 1019.36 1019.36 1019.32 1019.28 1019.24
1009.96 1010.08 1010.32 1010.52 1010.56 1010.32 1010.56 1010.76 1011.00 1011.40 1011.80 1012.20 1012.64 1012.92 1013.00 1013.04 1013.04 1013.16 1013.24 1013.40 1013.56 1013.68 1014.08 1014.56 1014.96 1014.64 1014.60 1015.12 1014.96 1014.68 1014.68 1015.40 1016.00 1016.28 1016.64 1016.72 1017.16 1017.48 1017.64 1017.24 1017.28 1017.24 1017.16 1018.04 1018.48 1018.92 1018.44 1017.96 1018.16 1018.36 1017.92 1017.48 1017.72 1017.88 1017.96 1018.20 1018.44 1018.56 1018.68 1018.80 1018.84 1018.88 1018.88 1018.88 1018.92 1018.96 1018.96 1018.96 1019.00 1019.00 1019.04 1019.04 1019.04 1019.04
1009.08 1009.20 1009.40 1009.56 1009.72 1009.80 1009.92 1010.04 1010.24 1010.72 1011.16 1011.64 1012.12 1012.40 1012.52 1012.44 1012.52 1012.68 1012.88 1012.96 1013.12 1013.28 1013.28 1013.60 1013.84 1013.92 1013.84 1014.00 1014.08 1014.08 1014.12 1014.48 1014.80 1015.04 1015.60 1015.88 1016.20 1016.40 1016.40 1016.68 1016.72 1017.04 1016.92 1017.32 1018.00 1019.12 1018.24 1017.64 1018.08 1018.12 1017.80 1017.56 1017.56 1017.60 1018.04 1018.20 1018.24 1018.32 1018.44 1018.48 1018.56 1018.64 1018.64 1018.64 1018.64 1018.68 1018.64 1018.64 1018.68 1018.68 1018.68 1018.72 1018.76 1018.80
1008.32 1008.44 1008.64 1008.92 1009.16 1009.28 1009.36 1009.36 1009.56 1009.80 1010.32 1011.08 1011.64 1012.00 1011.96 1012.04 1012.00 1011.96 1011.64 1011.84 1012.12 1012.32 1012.56 1012.76 1013.00 1013.12 1013.16 1013.20 1013.40 1013.48 1013.68 1013.96 1014.20 1014.56 1014.88 1015.24 1015.72 1016.36 1017.00 1017.48 1017.12 1017.36 1016.68 1016.76 1017.64 1018.32 1018.20 1017.44 1017.92 1018.00 1017.60 1017.48 1017.64 1017.64 1017.92 1018.04 1018.04 1018.04 1018.16 1018.28 1018.40 1018.40 1018.40 1018.40 1018.44 1018.40 1018.36 1018.32 1018.32 1018.28 1018.28 1018.36 1018.44 1018.52
1007.64 1007.68 1007.76 1008.08 1008.44 1008.68 1008.76 1008.72 1009.12 1009.44 1009.84 1010.56 1011.08 1011.44 1011.64 1011.56 1011.68 1011.68 1011.36 1011.44 1011.76 1011.96 1012.12 1012.28 1012.44 1012.60 1012.76 1012.88 1013.00 1013.08 1013.16 1013.52 1013.84 1014.56 1015.40 1015.92 1015.88 1016.64 1017.32 1017.40 1017.36 1017.16 1016.36 1016.36 1016.68 1017.48 1018.00 1017.40 1017.56 1017.92 1017.76 1017.72 1017.76 1017.68 1017.60 1017.68 1017.76 1017.92 1018.08 1018.12 1018.12 1018.16 1018.16 1018.20 1018.20 1018.16 1018.08 1018.00 1017.92 1017.88 1017.88 1017.96 1018.04 1018.16
1007.08 1006.92 1007.04 1007.28 1007.60 1007.84 1007.92 1008.08 1008.64 1009.12 1009.52 1010.08 1010.48 1011.00 1011.40 1011.72 1011.84 1011.48 1011.08 1011.28 1011.60 1011.64 1011.88 1012.08 1012.24 1012.44 1012.64 1012.72 1012.88 1012.96 1013.04 1013.24 1013.40 1014.28 1015.40 1015.20 1015.40 1016.28 1016.60 1017.28 1017.08 1016.48 1016.04 1016.08 1015.92 1017.32 1017.52 1017.16 1017.12 1017.76 1017.72 1017.72 1017.60 1017.48 1017.32 1017.32 1017.60 1017.80 1017.80 1017.84 1017.84 1017.88 1017.96 1018.00 1017.96 1017.92 1017.80 1017.68 1017.60 1017.56 1017.56 1017.60 1017.72 1017.92
1006.84 1006.72 1006.68 1006.84 1006.84 1006.92 1007.16 1007.72 1008.24 1008.76 1009.16 1009.48 1009.92 1010.36 1010.92 1011.36 1011.40 1010.76 1010.72 1011.12 1011.52 1011.84 1012.16 1012.40 1012.56 1012.76 1012.68 1012.72 1012.84 1012.96 1012.92 1012.92 1013.04 1013.36 1013.92 1014.28 1015.04 1015.68 1015.88 1016.04 1016.32 1016.84 1016.16 1015.44 1015.40 1016.92 1017.12 1017.04 1017.08 1017.40 1018.12 1018.52 1017.60 1017.08 1017.04 1017.24 1017.44 1017.60 1017.64 1017.72 1017.84 1017.84 1017.80 1017.72 1017.68 1017.64 1017.52 1017.40 1017.28 1017.24 1017.28 1017.32 1017.48 1017.72
1006.84 1006.56 1006.48 1006.44 1006.52 1006.64 1007.00 1007.36 1007.80 1008.40 1008.72 1008.88 1009.20 1009.68 1010.28 1010.56 1010.56 1009.80 1010.28 1010.28 1010.48 1010.96 1011.32 1011.68 1012.00 1012.32 1012.48 1012.56 1012.60 1012.80 1012.92 1012.80 1012.72 1013.00 1013.28 1013.64 1014.16 1014.88 1015.16 1015.16 1015.28 1015.84 1015.76 1015.24 1014.88 1016.16 1016.44 1016.52 1017.04 1016.76 1017.40 1018.24 1018.52 1017.48 1017.08 1017.12 1017.04 1017.24 1017.36 1017.44 1017.52 1017.36 1017.36 1017.40 1017.44 1017.32 1017.20 1017.04 1016.96 1016.96 1017.00 1017.04 1017.20 1017.52
1006.84 1006.68 1006.36 1006.16 1006.36 1006.72 1006.88 1007.16 1007.48 1007.88 1008.16 1008.12 1008.40 1008.76 1009.08 1008.92 1008.68 1009.08 1009.60 1009.68 1009.84 1010.40 1010.76 1011.20 1011.60 1011.92 1012.16 1012.24 1012.36 1012.56 1012.68 1012.64 1012.64 1012.76 1012.96 1013.16 1013.48 1014.04 1014.60 1014.88 1014.96 1015.12 1014.96 1014.80 1014.72 1015.52 1016.48 1016.36 1016.72 1016.76 1017.12 1017.40 1017.48 1017.56 1017.16 1017.04 1016.88 1016.88 1016.84 1016.96 1017.16 1017.00 1017.04 1017.08 1017.04 1016.88 1016.72 1016.64 1016.64 1016.68 1016.72 1016.80 1016.84 1017.12
1006.48 1006.24 1006.24 1006.28 1006.08 1006.36 1006.72 1007.12 1007.32 1007.40 1007.52 1007.68 1007.76 1007.68 1007.68 1008.04 1008.60 1008.80 1008.84 1009.12 1009.64 1010.00 1010.40 1010.72 1011.12 1011.44 1011.72 1011.92 1012.04 1012.20 1012.32 1012.36 1012.40 1012.48 1012.60 1012.72 1012.84 1013.08 1013.40 1013.96 1014.48 1014.84 1015.24 1014.60 1014.40 1014.92 1015.80 1016.56 1016.60 1016.92 1017.08 1017.40 1017.36 1017.20 1017.40 1017.24 1016.92 1016.76 1016.68 1016.64 1016.68 1016.76 1016.72 1016.72 1016.64 1016.52 1016.36 1016.28 1016.28 1016.32 1016.32 1016.28 1016.36 1016.48
1005.88 1005.64 1005.76 1005.56 1005.64 1005.96 1006.36 1006.80 1007.00 1007.20 1007.32 1007.64 1007.32 1007.00 1007.40 1007.68 1008.00 1008.44 1008.76 1009.04 1009.48 1009.76 1010.04 1010.36 1010.72 1010.76 1010.88 1011.20 1011.36 1011.52 1011.76 1011.84 1011.92 1012.08 1012.24 1012.40 1012.56 1012.76 1012.84 1012.92 1013.16 1013.60 1014.08 1014.16 1014.16 1014.56 1015.16 1016.04 1016.08 1016.52 1017.00 1017.00 1017.32 1017.24 1017.36 1017.56 1017.28 1016.60 1016.64 1016.52 1016.52 1016.48 1016.40 1016.40 1016.48 1016.36 1016.16 1016.04 1015.96 1015.88 1015.92 1016.04 1016.12 1016.20
1005.00 1005.04 1005.04 1005.12 1005.24 1005.56 1005.92 1006.20 1006.52 1006.88 1007.28 1007.20 1006.96 1007.20 1007.40 1007.72 1008.08 1008.20 1008.40 1008.84 1009.08 1009.36 1009.72 1010.00 1010.08 1010.20 1010.08 1010.20 1010.60 1010.64 1010.72 1011.00 1011.32 1011.60 1011.84 1012.04 1012.16 1012.44 1012.68 1012.80 1013.00 1013.28 1013.76 1014.00 1014.16 1014.36 1014.68 1015.28 1015.76 1015.96 1016.32 1016.80 1017.12 1017.36 1017.48 1016.96 1016.80 1016.76 1016.84 1016.44 1016.40 1016.40 1016.32 1016.32 1016.32 1016.16 1015.96 1015.80 1015.76 1015.72 1015.76 1015.88 1015.92 1016.00
1004.12 1004.20 1004.52 1004.80 1005.04 1005.32 1005.60 1005.80 1006.16 1006.48 1006.56 1006.64 1006.96 1007.28 1007.52 1007.72 1007.84 1007.80 1007.92 1008.32 1008.76 1009.16 1009.28 1009.32 1009.48 1009.60 1009.56 1009.40 1009.48 1009.76 1010.16 1010.48 1010.88 1011.32 1011.48 1011.64 1011.88 1012.12 1012.44 1012.68 1012.88 1013.24 1013.60 1013.92 1014.20 1014.40 1014.60 1014.84 1015.32 1015.64 1016.12 1016.40 1016.76 1016.80 1016.88 1017.04 1016.92 1016.84 1016.72 1016.76 1016.80 1016.44 1016.32 1016.24 1016.20 1016.12 1015.92 1015.64 1015.56 1015.56 1015.68 1015.76 1015.84 1015.84
1003.68 1004.00 1004.32 1004.56 1005.00 1005.40 1005.76 1006.36 1006.64 1006.64 1006.64 1006.88 1006.84 1006.96 1007.24 1007.52 1007.36 1007.40 1007.60 1007.92 1008.32 1008.52 1008.72 1008.96 1009.04 1008.88 1009.00 1009.24 1009.36 1009.64 1010.00 1010.44 1010.68 1010.84 1011.28 1011.60 1011.88 1012.12 1012.64 1013.00 1013.20 1013.12 1013.24 1013.52 1013.88 1014.20 1014.40 1014.68 1014.92 1015.36 1015.92 1016.20 1016.36 1016.60 1016.56 1016.76 1016.80 1016.56 1016.40 1016.52 1016.48 1016.28 1016.20 1016.20 1016.08 1015.88 1015.68 1015.56 1015.44 1015.44 1015.44 1015.44 1015.56 1015.72
1004.00 1004.08 1004.28 1004.28 1004.28 1004.40 1004.72 1005.00 1005.36 1005.84 1006.08 1006.56 1006.76 1006.76 1007.08 1006.92 1006.60 1006.48 1006.48 1006.52 1006.88 1007.28 1007.68 1007.88 1007.96 1008.08 1008.28 1008.60 1009.20 1009.72 1010.00 1010.36 1010.52 1010.60 1011.04 1011.40 1011.60 1011.96 1012.40 1012.88 1013.28 1013.28 1013.12 1013.20 1013.52 1013.88 1014.16 1014.32 1014.56 1014.92 1015.68 1016.04 1016.20 1016.28 1016.28 1016.36 1016.52 1016.44 1016.28 1016.20 1016.36 1016.88 1016.16 1015.92 1015.80 1015.64 1015.44 1015.32 1015.32 1015.28 1015.28 1015.28 1015.36 1015.40
1004.44 1004.40 1004.24 1004.40 1004.72 1005.04 1005.48 1005.76 1005.84 1005.68 1005.44 1005.28 1005.80 1005.68 1005.24 1004.92 1004.40 1004.00 1004.08 1004.68 1005.24 1005.60 1005.92 1006.44 1006.92 1007.28 1007.60 1008.08 1008.44 1008.96 1009.44 1009.80 1010.08 1010.20 1010.68 1011.04 1011.48 1011.76 1012.24 1013.00 1013.40 1013.28 1013.24 1013.24 1013.44 1013.56 1013.80 1014.04 1014.32 1014.64 1015.04 1015.56 1016.04 1016.08 1016.08 1016.20 1016.28 1016.20 1016.12 1015.96 1015.96 1015.92 1015.88 1015.96 1015.80 1015.48 1015.16 1015.20 1015.28 1015.32 1015.24 1015.20 1015.32 1015.28
1004.72 1005.08 1005.28 1005.16 1005.00 1005.20 1005.40 1005.44 1005.32 1004.92 1004.76 1004.76 1004.72 1004.72 1004.56 1004.12 1003.88 1003.92 1004.16 1004.24 1004.04 1004.12 1004.68 1005.20 1005.56 1005.92 1006.32 1006.84 1007.20 1007.76 1008.44 1008.92 1009.36 1009.68 1010.28 1010.64 1011.12 1011.52 1011.84 1012.44 1012.92 1013.16 1013.36 1013.44 1013.44 1013.56 1013.64 1013.80 1013.92 1014.24 1014.60 1014.92 1015.24 1015.60 1016.04 1016.36 1016.08 1015.88 1015.92 1015.76 1015.76 1015.76 1015.64 1015.44 1015.32 1015.20 1015.00 1015.12 1015.28 1015.24 1015.24 1015.08 1015.00 1015.00
1005.20 1005.08 1005.00 1004.84 1004.80 1005.08 1005.08 1004.68 1004.48 1004.56 1004.56 1004.40 1004.44 1004.24 1003.96 1003.80 1003.44 1003.32 1003.36 1003.48 1003.52 1003.56 1003.64 1003.76 1004.28 1004.64 1005.00 1005.48 1005.80 1006.36 1006.96 1007.76 1008.32 1008.80 1009.44 1010.24 1010.56 1011.24 1011.76 1012.24 1012.60 1012.64 1012.76 1013.00 1013.20 1013.32 1013.48 1013.68 1013.92 1014.20 1014.36 1014.60 1014.80 1015.12 1015.52 1015.92 1015.88 1015.68 1015.52 1015.40 1015.36 1015.44 1015.20 1015.04 1014.92 1014.88 1014.92 1015.04 1015.16 1015.32 1015.24 1015.04 1014.76 1014.60
1004.92 1004.80 1004.52 1004.08 1003.80 1003.96 1003.96 1003.92 1003.68 1003.56 1003.60 1003.48 1003.52 1003.56 1003.52 1003.56 1003.28 1002.96 1002.76 1002.56 1002.72 1003.20 1003.60 1003.76 1003.76 1003.92 1004.16 1004.52 1004.88 1005.32 1005.84 1006.48 1007.16 1008.00 1008.68 1009.32 1010.20 1010.68 1011.12 1011.76 1012.16 1012.40 1012.52 1012.68 1012.80 1012.88 1013.24 1013.60 1013.96 1014.52 1014.76 1014.92 1015.20 1015.04 1014.84 1014.92 1015.36 1015.28 1015.24 1015.12 1014.96 1015.04 1015.00 1014.76 1014.76 1014.80 1014.84 1014.88 1014.92 1015.16 1015.12 1014.88 1014.64 1014.28
1004.80 1004.64 1004.52 1004.28 1003.92 1003.68 1003.64 1002.96 1002.40 1002.16 1002.00 1001.92 1002.08 1002.28 1002.68 1002.64 1002.40 1002.32 1001.92 1001.60 1001.96 1002.32 1002.84 1003.28 1003.60 1003.84 1003.96 1004.12 1004.52 1004.92 1005.52 1005.96 1006.36 1006.84 1007.52 1008.36 1009.32 1010.12 1010.60 1011.00 1011.44 1011.80 1012.00 1012.16 1012.28 1012.52 1012.84 1013.24 1013.64 1014.36 1014.96 1015.32 1015.64 1015.72 1015.20 1014.16 1014.16 1014.40 1014.88 1014.88 1014.72 1014.68 1014.60 1014.52 1014.56 1014.68 1014.80 1014.92 1014.84 1014.92 1015.04 1014.84 1014.52 1014.16
1004.40 1004.28 1004.16 1003.84 1003.48 1003.32 1003.08 1002.68 1002.44 1002.12 1001.76 1001.52 1001.36 1001.24 1001.20 1001.12 1000.96 1000.84 1000.48 1000.84 1001.20 1001.40 1001.64 1002.04 1002.60 1003.08 1003.44 1003.72 1004.24 1004.88 1005.48 1005.96 1006.48 1006.56 1006.88 1007.48 1008.32 1009.32 1010.24 1010.76 1011.00 1011.24 1011.56 1011.64 1011.80 1012.20 1012.52 1012.92 1013.16 1013.68 1014.36 1014.88 1015.28 1015.40 1014.72 1013.60 1013.28 1013.16 1013.76 1014.28 1014.36 1014.16 1014.24 1014.40 1014.60 1014.80 1014.72 1014.68 1014.68 1014.60 1014.48 1014.36 1014.24 1014.00
1004.32 1004.08 1003.96 1003.68 1003.32 1002.72 1002.16 1001.68 1001.32 1001.12 1000.92 1000.80 1000.76 1000.64 1000.32 999.84 999.80 999.88 1000.00 1000.44 1000.48 1000.52 1000.76 1001.08 1001.28 1001.72 1002.04 1002.56 1003.44 1004.04 1004.76 1005.56 1006.00 1006.44 1006.72 1007.04 1007.80 1008.80 1009.56 1010.16 1010.56 1010.80 1011.12 1011.32 1011.56 1011.80 1011.96 1012.28 1012.76 1013.08 1013.56 1014.16 1014.56 1014.60 1014.36 1013.68 1013.52 1013.52 1013.32 1013.48 1013.96 1013.96 1013.96 1014.28 1014.60 1014.72 1014.64 1014.36 1014.32 1014.08 1013.92 1014.04 1013.92 1013.76
1004.28 1004.08 1003.80 1003.52 1003.08 1002.72 1002.24 1001.52 1000.96 1000.40 999.88 999.72 999.60 999.44 999.28 999.12 999.04 999.12 999.48 999.52 999.32 999.20 999.32 999.72 1000.20 1000.56 1000.92 1001.44 1001.88 1002.52 1003.60 1004.56 1005.32 1005.80 1006.28 1006.56 1007.04 1008.04 1009.08 1009.68 1010.12 1010.40 1010.76 1011.16 1011.32 1011.44 1011.52 1011.76 1012.08 1012.44 1012.80 1013.32 1013.76 1013.76 1013.64 1013.76 1013.80 1013.20 1013.04 1013.20 1013.40 1013.88 1013.96 1014.08 1014.28 1014.32 1014.32 1014.24 1013.96 1013.68 1013.56 1013.32 1013.20 1013.08
1003.52 1003.48 1003.32 1003.00 1002.52 1002.16 1001.76 1001.20 1000.60 999.84 999.28 998.76 998.48 998.20 998.16 998.12 998.12 998.12 998.04 998.04 998.08 998.00 998.08 998.32 998.92 999.64 1000.12 1000.52 1001.12 1001.72 1002.32 1002.80 1003.44 1004.36 1005.52 1006.08 1006.68 1007.60 1008.56 1009.12 1009.56 1010.00 1010.52 1010.88 1011.16 1011.24 1011.24 1011.36 1011.56 1011.84 1012.16 1012.40 1012.64 1012.84 1013.08 1013.16 1013.20 1013.08 1013.08 1013.08 1013.24 1013.44 1013.52 1013.72 1013.96 1014.04 1014.04 1013.76 1013.60 1013.68 1013.72 1013.48 1013.52 1013.20
1003.12 1003.08 1002.72 1002.40 1001.92 1001.44 1001.00 1000.44 1000.00 999.56 998.96 998.32 997.88 997.56 997.44 997.32 997.32 997.16 997.04 997.04 997.32 997.80 998.12 998.36 998.56 999.00 999.60 999.96 1000.48 1001.24 1002.56 1003.28 1003.44 1004.24 1005.24 1005.80 1006.56 1007.36 1008.08 1008.72 1009.28 1009.56 1010.08 1010.48 1010.64 1010.84 1010.84 1010.76 1010.84 1011.04 1011.44 1011.84 1012.20 1012.56 1012.92 1013.24 1013.40 1013.16 1013.08 1012.84 1012.60 1012.72 1012.80 1012.96 1013.28 1013.52 1013.56 1013.32 1013.36 1013.52 1013.52 1013.52 1013.40 1013.20
1003.12 1002.80 1002.28 1001.76 1001.28 1000.64 1000.20 999.68 999.20 998.92 998.56 998.24 997.88 997.36 996.96 996.68 996.16 995.68 995.60 995.80 996.16 996.48 996.96 997.28 997.92 998.84 999.48 1000.36 1001.20 1001.60 1002.20 1003.04 1003.56 1004.24 1004.96 1005.68 1006.64 1007.52 1008.04 1008.48 1008.88 1009.32 1009.72 1010.08 1010.16 1010.24 1010.12 1010.12 1010.40 1010.80 1011.24 1011.80 1012.24 1012.80 1013.16 1013.12 1013.24 1013.04 1012.84 1012.52 1012.16 1012.12 1012.36 1012.48 1012.60 1012.76 1012.88 1013.00 1013.16 1013.36 1013.28 1013.12 1013.04 1013.12
1002.92 1002.60 1002.24 1001.68 1001.00 1000.20 999.56 999.12 998.72 998.44 998.04 997.72 997.44 997.12 996.84 996.40 996.04 995.88 995.76 995.52 995.12 994.64 994.60 995.24 996.40 997.40 998.76 1000.04 1000.80 1001.00 1001.44 1002.20 1003.00 1003.72 1004.48 1005.40 1006.44 1007.40 1008.12 1008.36 1008.44 1008.92 1009.20 1009.36 1009.44 1009.56 1009.88 1010.12 1010.40 1010.84 1011.24 1011.68 1012.04 1012.28 1012.76 1012.80 1012.76 1012.76 1012.60 1012.36 1012.20 1012.00 1012.00 1012.12 1012.40 1012.52 1012.52 1012.36 1012.44 1012.48 1012.56 1012.64 1012.96 1013.32
1002.76 1002.52 1002.16 1001.72 1001.08 1000.24 999.36 998.72 998.24 997.76 997.44 997.08 996.72 996.44 996.20 995.96 995.76 995.48 995.08 994.44 994.28 994.76 995.88 996.20 995.28 996.04 997.84 999.00 999.88 1000.84 1001.72 1002.20 1002.52 1003.08 1004.04 1005.08 1006.00 1006.84 1007.44 1007.88 1008.12 1008.36 1008.64 1008.92 1009.24 1009.48 1009.88 1010.24 1010.48 1010.72 1011.24 1011.64 1011.80 1012.16 1012.44 1012.56 1012.64 1012.48 1012.36 1012.16 1011.92 1011.96 1012.04 1011.96 1011.96 1012.00 1012.16 1012.32 1012.32 1012.24 1012.12 1012.04 1012.04 1011.96
1002.80 1002.64 1002.28 1001.80 1001.28 1000.76 1000.20 999.32 998.44 998.00 997.64 997.08 996.44 995.84 995.40 995.28 995.20 994.76 994.36 994.80 994.96 994.64 993.88 994.52 996.84 997.64 997.92 998.44 999.44 1000.84 1001.76 1002.36 1002.72 1003.12 1003.88 1004.84 1005.80 1006.64 1007.24 1007.60 1007.88 1008.08 1008.36 1008.60 1009.08 1009.44 1009.72 1010.24 1010.44 1010.64 1011.04 1011.32 1011.48 1011.80 1011.96 1012.12 1012.16 1012.08 1011.92 1011.88 1011.96 1011.92 1011.88 1011.88 1011.92 1011.92 1012.04 1012.00 1011.72 1011.72 1011.72 1011.68 1011.72 1011.84
Wind_Speed
7 6 6 5 6 5 3 3 3 7 2 1 4 4 6 3 2 4 5 5 5 6 7 3 4 8 5 6 4 3 3 6 10 8 6 5 6 12 15 15 14 13 12 11 12 11 12 12 12 12 11 11 10 9 8 8 7 7 7 6 6 6 6 6 6 7 8 8 8 8 8 9 9 9
5 6 6 7 5 5 5 3 2 4 4 2 2 2 2 3 4 2 4 4 3 3 6 5 3 4 5 4 3 3 4 8 11 6 7 6 5 11 16 14 13 12 12 12 12 12 12 12 11 10 10 10 9 9 8 7 7 6 5 5 6 6 6 6 6 6 6 6 7 7 7 8 8 8
6 5 7 6 7 4 4 2 4 2 5 5 3 2 3 3 3 3 2 1 3 3 4 4 4 5 4 4 4 3 4 7 10 6 5 5 6 9 11 15 13 12 12 12 12 12 13 12 11 10 9 8 8 8 7 7 6 5 5 6 5 5 6 4 4 5 5 6 6 6 7 8 9 10
6 7 6 6 7 6 5 4 5 3 4 4 4 4 4 4 3 3 2 3 3 4 2 2 5 7 7 5 6 6 3 7 11 4 3 2 6 5 4 10 12 12 12 13 12 13 13 13 11 10 9 8 8 7 6 5 5 5 5 5 5 5 5 4 4 4 5 5 6 7 7 8 8 9
6 7 7 6 7 6 6 6 5 4 5 5 5 4 5 5 4 5 4 4 5 3 2 1 5 6 8 6 4 4 5 5 5 4 3 3 4 4 4 6 11 13 14 13 14 13 13 13 12 11 8 9 8 7 5 4 4 4 5 6 5 6 5 4 4 4 5 6 6 6 7 7 7 7
7 7 8 7 6 8 7 7 7 5 6 6 6 6 6 5 5 5 5 5 4 5 2 3 3 0 5 6 4 3 4 4 5 4 4 3 4 5 5 6 7 15 14 14 14 13 13 13 13 12 11 10 8 6 5 5 5 6 6 6 6 6 5 4 3 3 4 5 6 6 6 6 7 7
8 8 9 9 7 7 8 8 8 8 6 7 8 7 6 6 6 6 6 5 5 5 4 3 3 3 1 2 6 5 4 3 6 6 5 5 4 4 5 4 4 12 14 14 13 13 13 13 13 12 12 11 9 7 6 6 6 7 8 7 6 5 3 2 2 3 4 4 5 5 6 6 6 6
10 11 10 10 10 8 9 8 8 7 7 6 7 7 7 7 7 6 7 6 4 4 5 3 5 4 5 3 3 6 5 5 4 3 4 6 5 4 4 3 3 8 16 15 15 14 15 14 12 12 12 10 9 8 8 8 8 9 8 7 7 4 3 4 4 5 5 5 5 5 6 6 6 6
11 11 11 11 11 10 9 9 9 8 8 8 7 8 7 7 7 6 7 8 6 5 5 4 4 4 5 5 5 5 4 4 5 4 5 4 4 4 4 3 6 9 17 17 16 16 15 13 13 13 12 11 10 9 9 9 9 9 9 9 7 4 5 5 5 5 5 5 5 5 6 6 6 6
12 12 12 11 12 12 12 10 10 9 9 8 8 8 8 7 7 7 5 7 8 7 6 4 3 3 3 3 3 5 6 4 4 5 4 4 4 3 3 4 5 2 5 4 7 9 10 12 14 13 12 11 11 10 10 10 10 11 11 9 6 6 6 6 5 5 5 6 6 6 6 6 6 7
13 13 12 12 12 12 12 12 11 10 10 9 9 9 8 8 8 8 7 6 8 8 7 6 5 4 4 4 4 4 6 6 5 3 4 6 5 5 4 3 3 2 5 8 10 10 11 12 9 10 13 12 10 10 10 10 11 12 11 7 7 6 6 6 5 5 5 6 7 7 7 7 7 7
13 13 13 13 13 13 12 12 11 11 11 9 9 9 8 8 9 8 8 8 7 7 8 8 7 6 5 4 4 3 5 4 4 4 3 4 4 5 4 5 4 3 1 4 5 8 8 6 10 11 10 10 9 10 10 13 13 13 9 7 6 6 7 6 6 6 7 8 8 9 8 8 7 7
12 12 13 13 14 14 15 17 15 14 13 10 11 10 9 9 9 9 8 8 8 7 7 7 6 6 7 6 6 7 6 8 8 5 5 5 3 4 5 5 5 3 4 3 3 2 4 5 5 5 4 5 8 10 13 11 14 12 8 8 7 8 8 7 7 7 7 8 9 10 10 10 9 9
13 14 14 14 18 18 18 18 19 18 17 17 13 11 11 11 10 10 9 9 9 9 9 9 8 9 8 8 8 7 7 6 6 6 6 5 5 3 3 3 4 5 4 3 4 3 2 3 3 5 4 5 7 6 6 7 6 9 11 10 10 9 7 7 7 8 8 8 9 10 11 11 11 10
13 13 14 12 15 17 17 19 22 20 20 19 18 17 17 14 12 11 11 10 9 10 10 9 9 9 9 9 7 8 7 7 8 8 7 7 6 5 4 5 2 4 5 3 2 2 2 1 3 3 3 5 6 6 7 9 8 9 11 12 10 8 8 8 8 9 8 8 9 9 10 11 11 11
13 13 14 13 11 13 16 16 17 20 21 20 19 18 17 17 18 16 13 11 10 11 10 10 10 9 9 8 8 7 8 7 7 7 7 8 7 6 6 5 4 2 4 4 3 5 2 3 4 4 6 5 3 5 10 13 12 12 13 11 10 9 10 10 9 8 8 8 8 9 9 10 10 11
13 12 13 12 12 11 19 17 16 16 17 19 20 19 18 18 19 18 18 16 12 9 10 11 10 11 8 9 8 7 7 6 7 6 6 7 7 6 6 5 3 4 3 4 3 4 3 4 4 5 4 5 2 8 10 13 13 14 13 12 11 12 11 9 8 7 8 9 9 9 9 9 10 11
14 14 13 13 13 12 12 14 16 15 16 15 13 13 13 13 16 18 19 18 18 14 11 10 11 9 8 8 7 7 7 6 7 8 7 8 7 7 7 4 3 4 6 6 4 3 4 3 4 5 2 1 4 8 11 13 13 14 14 13 13 10 8 8 8 9 9 9 9 9 9 10 10 11
15 15 14 15 15 13 13 13 17 16 16 15 15 16 16 16 14 13 13 12 11 12 11 10 10 8 8 8 7 6 7 8 6 7 8 8 7 5 4 3 3 3 6 6 5 5 3 3 3 2 4 3 1 5 9 13 15 14 14 12 9 9 10 9 10 10 10 10 9 9 10 10 10 11
14 14 15 14 14 14 14 16 22 20 16 15 16 17 16 16 15 14 16 17 17 15 12 10 10 10 9 8 9 8 7 6 6 6 5 5 4 6 5 5 4 5 6 8 7 5 4 4 4 2 0 1 2 5 6 11 14 14 12 10 11 11 11 11 11 11 11 11 10 10 10 10 10 11
14 15 15 15 14 14 15 17 21 21 20 15 16 16 17 16 15 15 13 17 19 19 17 17 14 13 12 11 10 12 14 11 9 7 6 6 6 6 6 5 4 7 6 8 10 7 5 3 4 2 1 0 0 1 2 6 11 10 10 12 13 13 13 12 12 12 12 12 12 11 11 11 11 10
13 16 21 19 16 16 16 18 20 22 20 16 16 15 16 16 15 15 13 9 12 17 18 17 14 12 10 10 11 12 14 16 12 10 9 8 7 7 7 6 7 8 5 8 9 7 4 4 3 2 1 1 2 4 6 3 6 11 12 14 14 14 12 12 13 12 12 13 13 12 12 12 11 5
12 13 15 21 20 18 17 19 19 22 20 17 15 15 14 15 17 17 14 13 12 13 10 7 6 4 7 7 7 9 16 17 14 10 9 8 8 8 9 9 7 7 4 6 10 6 5 5 4 4 2 2 3 4 1 4 6 6 6 6 8 11 13 14 13 13 14 14 14 13 12 13 9 4
13 13 12 15 21 22 19 18 20 22 24 19 15 13 14 15 18 14 13 14 12 13 16 13 12 9 8 7 7 6 9 12 12 11 10 9 8 8 7 7 5 3 3 2 12 8 5 6 4 6 4 2 2 0 1 1 4 6 7 7 5 10 13 13 11 15 16 15 15 14 14 14 10 4
13 12 12 11 14 20 19 17 20 22 25 24 17 16 15 17 16 13 13 16 18 13 15 13 12 11 9 9 8 9 9 10 9 9 10 8 7 6 6 6 5 5 3 4 5 6 4 4 4 3 2 2 2 2 3 3 2 2 3 3 6 5 4 6 6 7 11 15 15 14 14 14 13 8
13 13 11 11 12 17 20 17 18 23 24 27 18 19 21 19 16 15 13 11 11 12 12 12 12 11 11 11 10 10 10 10 10 10 9 9 9 7 6 6 6 5 4 2 7 7 6 3 3 3 2 3 3 3 3 2 0 2 4 3 3 3 5 5 6 5 5 3 5 6 8 12 12 14
14 11 12 12 14 15 18 20 20 20 24 20 21 24 20 19 18 16 11 9 11 11 12 12 13 13 13 13 12 12 11 11 11 10 9 9 8 6 6 5 5 6 7 6 5 7 6 4 3 4 4 3 2 1 1 2 3 2 1 3 3 4 4 2 3 4 3 2 4 7 8 9 10 11
13 13 13 12 15 15 17 21 22 20 20 19 25 22 18 16 15 12 12 10 12 12 13 13 13 14 13 13 12 12 12 12 11 10 10 9 10 7 4 5 8 9 9 7 6 7 7 6 5 3 3 4 4 4 3 2 3 3 4 2 3 3 4 3 6 4 5 5 4 2 1 1 0 0
14 13 14 13 12 12 16 20 21 19 22 25 23 24 19 13 11 13 12 11 12 12 14 14 13 13 13 13 12 11 10 10 9 9 9 9 8 8 6 7 8 9 8 7 7 7 7 7 6 4 4 4 5 3 3 4 2 3 3 3 3 2 3 4 5 6 6 4 2 3 2 1 2 2
20 19 15 15 7 4 7 8 8 7 13 18 22 23 22 11 13 12 12 11 13 13 12 12 14 13 11 10 10 10 10 11 12 11 10 10 9 8 8 8 7 6 7 7 8 7 7 7 6 5 5 5 6 5 4 3 4 4 4 4 4 3 5 7 7 7 6 4 4 2 2 1 0 2
12 13 13 14 17 14 14 16 17 17 16 13 15 14 13 13 14 14 15 15 15 14 13 13 13 11 10 10 10 12 10 11 10 11 10 9 9 8 8 8 7 7 6 6 6 6 6 6 7 6 5 4 3 4 4 4 5 4 4 4 4 6 2 3 4 6 7 5 2 1 1 0 1 2
13 12 11 11 6 2 2 4 5 9 11 13 13 16 17 19 20 23 24 19 15 15 14 13 12 10 11 13 13 11 11 12 11 11 11 10 9 8 9 8 7 6 6 5 5 6 7 7 7 7 7 6 5 4 4 4 6 5 5 4 4 5 6 6 7 7 4 3 1 0 2 1 2 3
10 9 10 11 9 5 6 7 10 12 12 12 13 16 17 18 18 16 14 17 17 16 15 16 16 16 15 15 14 14 12 12 13 11 11 10 10 8 8 9 8 8 8 7 7 7 7 7 8 9 8 7 6 4 3 5 6 5 6 6 5 6 6 7 7 6 1 1 2 3 3 2 3 6
7 9 11 12 12 8 9 12 13 12 12 13 13 14 18 18 17 17 17 17 17 16 17 17 16 17 17 17 16 15 15 13 13 14 14 11 11 11 10 9 8 7 7 7 8 7 8 8 7 6 5 5 5 6 7 7 8 6 6 6 6 6 6 6 5 3 2 2 2 3 3 4 5 5
6 10 11 13 12 12 13 14 15 15 14 15 15 15 15 16 18 18 17 17 16 16 15 15 16 16 17 17 16 16 16 16 15 13 12 12 11 11 11 10 9 9 8 7 7 7 9 8 7 5 3 3 3 5 8 9 7 9 6 6 5 5 6 5 3 1 1 2 2 3 5 6 6 6
5 8 10 11 11 11 12 15 16 16 17 16 16 16 16 16 18 19 20 19 18 17 16 16 15 15 16 16 16 15 14 15 15 15 15 14 13 11 10 10 9 9 9 9 8 6 9 9 9 8 7 5 6 7 8 16 18 10 9 7 7 7 6 3 2 2 2 5 5 5 6 5 4 2
6 6 9 11 12 12 13 14 14 14 15 15 14 16 17 18 18 20 22 20 18 17 18 17 17 16 16 15 15 14 14 15 14 14 14 13 12 11 10 9 8 8 8 7 6 6 8 9 9 9 8 7 7 9 10 4 18 22 10 9 6 5 3 2 2 4 5 5 6 7 6 3 2 2
5 6 8 10 12 13 15 15 15 16 16 16 14 17 19 19 18 19 19 18 19 17 18 19 18 18 18 17 16 15 15 14 14 14 13 13 13 12 11 10 8 7 7 6 6 8 8 9 10 9 8 8 7 7 7 2 2 5 13 9 6 3 3 3 4 5 6 6 7 6 3 3 3 3
5 6 7 9 10 11 14 15 16 17 18 16 17 18 19 19 18 17 17 18 19 20 19 20 18 18 19 19 18 19 17 16 15 15 14 13 14 13 11 10 9 8 7 6 6 7 7 8 8 8 8 8 8 5 3 0 1 1 8 17 9 5 4 5 5 6 6 6 6 4 3 4 5 7
6 6 8 10 11 11 12 14 15 16 17 17 17 17 18 19 19 18 18 19 20 22 21 20 20 20 18 18 18 17 19 21 19 17 15 14 13 13 11 10 9 9 8 9 8 7 6 7 7 7 6 7 5 3 3 3 1 1 0 6 16 13 9 5 6 6 6 7 4 3 5 3 3 1
8 8 9 10 12 12 13 14 15 15 16 16 16 17 17 17 18 17 17 18 18 16 14 14 15 18 16 17 18 17 15 13 13 14 14 13 13 12 13 12 9 8 8 8 9 8 8 7 8 11 7 4 3 4 0 1 4 2 3 5 11 19 20 15 9 6 7 4 4 6 5 4 3 2
9 9 10 10 12 14 13 14 14 14 15 15 16 15 15 16 18 25 26 26 23 20 18 18 17 14 12 13 13 14 16 15 14 14 14 13 12 11 12 10 9 8 8 7 7 7 6 6 9 9 7 5 6 4 6 5 4 3 3 5 3 10 16 20 19 14 9 6 6 4 4 3 2 3
8 9 10 12 13 13 12 13 14 13 14 14 14 14 14 15 15 18 17 17 19 21 22 23 20 19 17 14 12 13 15 16 16 15 15 13 12 11 10 10 10 10 10 7 6 6 6 6 6 7 7 7 6 6 6 5 4 4 5 3 4 4 5 11 15 17 19 19 13 9 6 5 2 3
10 10 10 11 12 12 11 10 11 12 13 13 13 14 14 14 14 13 13 16 17 14 6 4 15 20 18 16 17 15 13 14 14 15 14 13 12 11 10 9 9 9 8 7 6 6 7 6 6 7 7 7 5 5 5 4 5 5 5 6 3 0 2 2 5 10 11 10 13 15 15 12 11 10
9 9 10 10 11 11 11 9 7 7 8 9 11 13 14 12 9 12 14 8 5 8 15 20 12 9 12 15 17 15 13 13 13 12 13 12 11 10 10 11 10 8 7 7 7 6 6 7 6 5 5 5 5 5 5 5 6 5 4 1 3 3 4 4 6 5 6 7 11 16 16 17 15 14
Wind_Direction
201 199 209 227 242 282 265 232 177 185 201 131 153 157 174 188 185 189 177 203 198 209 225 205 173 161 162 166 165 180 188 151 168 183 201 202 183 204 207 209 212 214 213 216 221 227 232 237 240 245 250 252 252 254 252 253 256 262 269 279 283 282 284 284 280 285 292 296 299 302 304 305 308 310
211 198 200 207 236 226 270 205 268 151 157 134 127 153 160 166 190 218 188 203 202 190 210 220 164 158 153 151 163 179 185 161 172 179 196 208 213 190 202 205 206 205 207 210 216 224 232 236 237 242 247 247 249 252 251 254 259 266 269 274 272 270 272 276 277 283 289 295 297 299 303 305 306 307
196 217 203 195 209 208 241 219 223 165 156 159 167 185 173 192 191 213 191 210 224 212 203 234 132 149 155 160 182 200 181 170 178 188 198 211 215 189 196 196 195 198 201 208 214 222 230 235 236 236 233 233 237 239 243 247 256 258 260 259 261 264 268 276 283 280 283 287 289 290 296 302 308 311
188 208 222 198 193 198 211 225 199 180 165 165 185 187 188 187 200 207 220 216 240 211 240 164 145 156 170 185 183 192 176 175 182 194 208 208 158 160 179 193 189 195 201 209 214 220 227 232 233 230 221 225 225 227 233 238 239 242 243 243 248 254 255 255 262 275 282 286 292 297 298 300 302 304
191 196 218 216 192 188 201 206 208 196 169 176 185 202 188 196 192 193 210 217 235 287 226 103 164 189 166 189 197 161 176 159 194 184 194 143 179 163 175 184 200 201 205 209 214 219 225 229 230 229 218 223 224 222 226 230 218 214 226 232 232 234 242 247 266 294 308 310 309 306 303 307 309 307
195 193 203 221 201 192 200 200 207 207 189 177 191 198 202 198 195 193 192 214 220 231 239 238 250 52 159 174 206 174 183 164 180 182 198 177 184 189 198 192 203 207 207 210 213 220 225 229 230 231 230 227 207 204 208 211 213 221 227 230 227 225 228 235 265 294 299 298 300 301 302 303 308 311
191 196 198 208 213 194 202 204 205 209 205 188 193 198 198 201 200 194 196 190 214 225 233 201 207 203 242 165 183 206 179 182 173 192 195 200 207 216 212 214 188 203 209 211 213 219 225 228 229 232 232 231 225 220 221 218 215 223 232 233 229 230 242 270 273 272 273 274 277 285 295 301 305 311
196 199 200 202 206 206 201 204 206 208 207 200 187 197 192 197 202 196 190 201 198 207 229 226 206 185 200 206 166 181 181 188 206 201 197 194 209 211 201 220 260 195 205 208 211 218 223 226 230 235 237 234 226 219 218 217 216 225 231 232 237 236 258 265 270 264 260 252 262 277 282 288 295 300
200 200 204 200 199 204 202 202 207 209 208 206 193 195 196 193 198 203 186 193 199 208 211 225 214 205 191 193 192 186 176 187 187 199 219 206 205 216 213 227 219 196 199 205 210 217 220 224 228 233 235 231 224 220 219 218 221 226 230 233 229 227 239 252 257 262 266 272 274 266 272 279 284 285
200 204 204 202 200 202 202 202 204 206 210 206 205 199 196 193 190 201 198 184 193 204 219 216 236 217 204 185 169 184 193 191 199 205 209 204 213 220 224 222 251 187 169 185 221 224 226 228 230 230 233 231 224 222 223 221 221 225 229 229 221 230 244 256 266 276 276 274 277 277 275 275 279 283
203 205 204 204 203 203 204 203 201 201 206 208 208 205 198 191 191 194 203 193 188 195 206 216 222 231 214 193 196 185 179 194 203 202 201 225 210 207 205 233 243 269 187 209 206 206 209 217 218 229 233 235 226 221 224 227 226 228 229 222 214 232 249 255 260 265 275 280 277 276 273 274 276 285
207 207 206 207 205 206 205 204 202 198 201 204 208 204 200 195 194 195 195 199 196 193 198 204 207 215 220 203 205 183 180 195 203 204 221 226 199 200 203 207 221 238 263 213 216 226 222 221 220 217 223 230 226 219 226 231 231 230 226 201 207 222 229 234 242 253 266 275 279 281 285 286 292 295
208 208 209 210 209 205 205 203 204 202 197 197 202 201 198 199 197 196 193 196 197 203 202 204 203 199 207 217 198 199 189 193 200 194 192 230 229 190 193 210 214 198 210 222 262 251 171 202 184 177 184 204 210 222 221 231 231 229 213 192 201 213 216 225 235 249 262 274 284 289 294 300 301 298
207 208 210 213 211 204 201 201 204 206 202 201 200 197 195 196 196 197 196 195 197 197 202 206 197 206 210 206 202 198 200 187 183 179 177 199 213 216 202 208 198 192 197 221 226 231 226 247 208 157 190 212 200 214 208 221 224 219 197 186 200 205 212 224 239 252 260 266 274 281 288 295 298 297
206 210 211 214 205 206 200 200 200 204 207 203 203 199 198 196 194 194 198 203 196 197 206 202 204 206 208 213 208 203 199 191 182 194 188 191 171 181 195 228 210 194 186 203 193 233 247 277 274 228 208 214 208 191 207 191 184 167 169 183 189 195 210 225 237 243 249 260 266 272 280 288 294 295
209 210 212 214 212 204 203 199 200 203 206 205 203 202 199 199 201 201 197 196 196 199 202 204 206 204 208 203 210 201 194 196 195 187 185 186 174 181 197 206 214 193 164 156 183 243 239 227 228 239 237 221 239 132 146 146 156 161 169 173 185 198 213 218 224 234 244 252 258 263 270 277 284 290
209 209 212 214 213 213 200 200 201 201 206 207 204 203 202 202 202 205 206 203 202 197 204 205 206 205 201 207 211 204 197 179 194 184 176 173 175 186 195 195 189 172 179 153 195 228 222 212 211 227 233 240 122 132 149 161 169 168 174 185 192 202 204 208 220 235 245 250 252 255 259 265 273 279
213 210 211 212 213 213 200 201 202 201 203 203 200 201 205 208 209 208 207 206 205 208 208 204 211 205 203 207 199 196 186 179 189 187 183 170 175 189 199 176 178 151 168 179 184 223 229 218 230 231 234 70 133 167 177 174 169 173 184 189 192 195 204 215 228 239 246 252 256 258 259 261 265 270
213 213 213 213 215 212 206 200 201 199 201 202 202 202 205 209 208 207 208 202 200 208 212 209 211 208 206 210 195 187 185 195 179 168 173 169 176 182 171 175 163 164 178 185 168 226 204 208 205 243 249 219 187 123 168 177 180 183 188 190 189 202 212 222 232 239 245 250 254 254 256 259 260 263
213 215 215 216 217 215 214 205 198 197 195 201 203 205 208 209 211 213 211 206 205 208 210 212 210 208 214 203 202 192 179 155 139 126 122 132 134 140 141 178 176 213 219 190 187 211 214 197 186 223 246 54 304 133 164 196 188 193 186 187 202 213 219 227 234 239 244 248 249 251 253 256 260 262
213 213 214 214 216 214 218 206 195 197 189 199 203 206 208 209 209 218 213 205 205 211 212 212 215 212 208 207 200 190 176 157 150 146 155 166 155 152 170 191 209 237 216 178 187 188 201 185 166 183 243 173 203 285 205 181 210 182 187 202 211 218 223 227 235 241 246 250 254 259 261 261 262 267
218 216 213 212 214 215 217 205 192 194 190 199 203 206 210 210 213 220 216 201 205 210 211 213 214 200 186 191 188 180 165 159 158 165 179 175 175 176 180 194 212 234 213 179 174 170 197 154 139 161 258 200 214 216 242 195 165 190 206 212 217 225 229 232 238 243 248 252 255 259 263 266 269 272
227 225 217 213 215 217 214 199 193 191 192 202 201 203 207 210 213 216 205 207 197 200 195 189 153 168 184 175 182 188 172 168 173 176 173 174 184 189 187 199 200 224 221 162 167 154 178 144 173 146 172 231 230 206 189 144 175 193 207 222 235 243 239 239 239 242 248 253 256 259 263 265 267 265
232 232 228 218 218 218 213 197 192 190 194 202 204 202 206 210 216 210 202 206 202 195 199 196 189 182 177 178 179 172 183 179 178 176 178 184 193 192 196 202 188 180 161 168 163 161 165 167 173 162 170 174 248 308 53 275 192 177 191 207 210 225 228 238 244 245 246 250 254 258 259 262 262 251
234 236 233 238 216 217 217 201 191 191 196 202 202 203 211 212 212 194 204 205 201 190 192 191 187 187 182 187 182 181 186 186 183 180 183 190 192 189 199 207 201 198 125 171 153 134 157 152 162 125 139 168 216 241 244 211 205 232 244 238 240 228 189 212 217 236 235 242 249 252 257 261 262 236
237 237 238 240 228 211 214 206 195 196 197 202 205 209 210 211 197 195 205 196 187 189 186 189 188 190 188 191 189 185 187 189 186 185 184 190 195 199 207 192 188 189 161 201 138 142 125 138 158 157 171 178 231 207 263 247 261 267 243 226 199 234 234 240 223 231 227 204 203 216 231 242 243 244
235 235 238 239 233 212 208 206 204 201 202 201 210 212 204 201 192 191 198 184 184 187 188 187 190 191 190 190 191 186 187 189 188 187 189 188 193 196 197 189 180 153 153 147 139 124 133 138 173 166 197 174 186 197 212 268 269 235 271 266 249 246 232 232 258 251 235 240 248 250 233 234 248 256
233 235 233 234 232 215 208 207 205 203 200 206 212 214 206 194 184 190 197 181 190 188 191 193 193 193 192 189 190 192 187 186 184 182 184 185 187 194 172 135 119 138 143 148 135 141 146 152 157 181 162 180 180 190 218 222 259 268 261 261 274 279 287 274 258 253 254 250 238 199 256 312 122 259
234 234 232 234 241 221 209 209 207 205 207 207 207 210 207 192 191 197 201 192 191 194 197 198 196 196 196 194 192 187 181 179 170 177 182 183 179 179 154 139 131 143 149 150 154 157 158 156 163 160 175 190 194 210 190 226 225 265 279 276 283 257 262 263 261 262 260 230 219 225 188 124 13 347
228 229 233 237 223 180 210 214 214 220 214 213 212 208 206 201 206 205 205 197 197 204 199 198 200 198 190 188 185 182 174 176 183 176 176 177 176 163 143 139 140 143 142 149 153 159 159 162 162 163 178 194 189 208 210 228 244 229 227 231 243 291 273 261 260 249 244 248 223 149 137 103 210 314
249 241 235 236 232 229 193 191 197 210 216 213 216 214 213 216 211 209 209 205 201 201 199 199 200 194 185 177 172 185 185 184 180 174 175 175 172 154 148 144 153 151 159 153 161 158 165 163 162 165 176 185 196 209 219 216 247 249 250 241 234 233 258 272 270 269 259 235 146 146 116 138 294 268
261 258 257 255 282 54 99 201 236 219 203 204 203 209 206 209 211 210 205 202 201 201 198 194 189 184 178 181 182 180 186 184 176 175 171 173 165 155 145 144 167 165 163 171 175 187 174 171 168 173 176 177 200 215 212 229 240 246 252 240 241 245 245 249 249 248 222 130 157 200 228 216 249 256
263 268 268 271 252 217 206 198 214 218 215 218 215 211 212 215 216 215 210 209 204 197 190 190 187 186 181 181 181 181 178 174 171 169 165 165 158 157 162 171 169 172 175 187 197 193 183 176 173 171 178 182 184 186 198 247 252 239 244 246 235 240 240 238 236 240 166 119 227 235 262 233 231 245
257 246 243 240 241 215 215 226 228 224 221 222 218 221 220 219 218 213 210 208 206 200 199 193 188 185 183 183 181 180 176 165 166 166 163 164 161 162 169 172 178 179 179 184 194 188 180 171 160 159 158 173 176 192 198 219 243 241 239 242 232 242 242 248 239 219 173 194 210 252 263 261 244 234
233 243 238 238 228 212 218 225 228 224 223 221 217 218 216 218 221 218 213 209 205 202 201 199 195 189 186 185 180 178 174 168 162 161 162 157 165 172 173 175 178 183 187 194 189 174 165 162 153 148 164 172 230 262 224 215 222 233 238 242 244 236 245 230 209 228 227 236 208 245 256 252 254 244
246 245 253 256 251 240 234 235 234 231 227 222 217 216 214 217 216 214 215 208 203 202 199 198 196 192 190 185 180 176 170 166 166 164 163 163 166 170 177 180 177 182 185 188 190 162 161 162 162 165 176 192 210 243 256 221 216 219 212 223 225 231 227 217 205 215 233 252 238 231 241 252 245 253
245 233 243 250 250 248 248 246 247 244 241 236 228 219 217 218 215 215 215 206 206 204 200 196 194 190 189 184 175 171 166 167 168 169 164 164 163 164 169 176 173 168 174 180 175 178 164 168 170 171 177 195 212 228 244 248 215 209 190 211 225 209 197 190 210 240 239 235 248 231 233 233 256 259
267 261 253 257 259 259 254 253 250 246 240 235 233 228 227 226 220 218 214 210 209 207 199 197 194 188 184 175 173 172 166 170 167 166 167 164 163 168 174 175 174 170 175 175 182 182 175 167 172 177 180 199 217 231 254 259 35 220 213 200 211 222 184 197 228 234 248 234 231 234 219 235 244 248
256 267 266 269 268 264 263 262 258 254 248 240 234 232 230 230 226 218 213 215 210 205 198 195 192 187 180 177 174 167 166 165 167 168 168 170 165 164 167 172 175 179 176 191 187 179 166 171 171 179 183 196 213 224 240 137 249 25 202 206 212 235 240 210 227 241 246 248 245 234 229 217 231 247
296 280 281 278 272 271 271 269 267 264 260 251 243 235 231 229 225 222 217 211 208 204 200 195 187 182 181 175 172 170 169 169 168 161 162 165 159 158 164 170 173 172 181 194 198 189 178 177 171 182 184 193 198 177 150 170 180 173 142 205 209 210 230 210 221 229 247 237 232 237 262 261 271 251
309 295 285 281 278 274 269 266 264 267 268 268 260 249 241 236 231 227 220 212 208 207 205 198 185 180 182 173 169 162 159 159 151 147 156 157 155 161 166 166 172 176 181 187 188 189 191 184 179 171 175 179 161 101 121 308 280 289 251 241 222 216 222 224 224 221 231 228 225 227 246 247 254 257
315 309 299 291 284 277 269 265 266 263 263 264 268 269 259 243 234 223 214 209 205 202 196 186 177 173 160 154 153 152 149 154 151 149 154 155 156 160 166 167 172 177 193 191 180 177 174 162 173 174 183 151 134 176 218 214 238 247 238 235 221 209 218 225 229 229 229 222 218 231 240 275 245 263
329 327 327 321 311 293 278 272 267 265 265 265 264 266 268 262 254 241 232 222 212 201 189 176 168 159 151 148 150 152 151 150 148 151 151 149 153 164 170 180 177 179 189 179 156 153 134 140 148 160 168 170 182 170 210 212 220 232 249 253 267 244 214 226 230 237 241 241 229 220 211 213 217 260
344 340 335 330 325 322 312 290 279 270 263 261 260 260 259 261 263 260 243 219 195 175 151 177 160 146 145 147 150 151 148 148 148 144 144 149 161 167 174 178 179 168 161 152 147 139 130 143 144 154 153 181 176 178 208 219 231 236 251 242 218 176 252 220 229 241 249 261 260 255 257 248 228 233
343 340 336 338 336 337 339 342 10 7 348 316 289 269 257 253 269 259 224 201 210 187 158 142 126 111 124 137 138 138 143 142 144 139 141 149 158 150 162 170 167 157 149 147 143 155 144 149 163 153 165 179 185 196 210 209 224 229 232 252 289 268 246 236 248 214 218 242 244 238 240 244 248 250